Regional Weather Roundup
Issued by NWS Northern Indiana

Home | Current Version | Previous Version | Text Only | Print | Product List | Glossary On
Versions: 1 2 3 4 5 6 7 8 9 10 11 12 13 14 15 16 17 18 19 20 21 22 23 24 25 26 27 28 29 30 31 32 33 34 35 36 37 38 39 40 41 42 43 44 45 46 47 48 49 50
000
ASUS43 KIWX 041100
RWRIWX

KIWX WEATHER ROUNDUP
NATIONAL WEATHER SERVICE NORTHERN INDIANA
700 AM EDT SAT JUL 04 2015

NOTE: "FAIR" INDICATES FEW OR NO CLOUDS BELOW 12,000 FEET WITH NO
SIGNIFICANT WEATHER AND/OR OBSTRUCTIONS TO VISIBILITY.

* THESE STATIONS ARE NOT UNDER NWS QUALITY CONTROL. THEY ALSO MAY NOT
  REPORT WEATHER SUCH AS PRECIPITATION OR FOG.

INZ001>027-041200-
NORTHERN INDIANA

CITY           SKY/WX    TMP DP  RH WIND       PRES   REMARKS
KNOX*            N/A     54  54 100 CALM      29.97R VSB 1/4
SOUTH BEND     CLEAR     54  52  93 CALM      29.99R
GOSHEN         PTCLDY    54  52  93 CALM      29.97R FOG
MONTICELLO*    CLEAR     55  55 100 CALM      29.97R FOG
ANGOLA*          N/A     54  39  58 CALM      29.97R VSB 1/2
FORT WAYNE     CLEAR     57  55  93 CALM      29.97R

$$
INZ028>050-041200-
CENTRAL INDIANA

CITY           SKY/WX    TMP DP  RH WIND       PRES   REMARKS
LAFAYETTE      CLEAR     56  55  97 CALM      29.97R FOG
KOKOMO*        PTCLDY    55  54  94 CALM      29.97R
MUNCIE*        CLEAR     59  58  96 CALM      29.97R FOG
INDIANAPOLIS   PTCLDY    63  59  87 N5        29.95R

$$
MIZ043>046-050>051-056>058-064>065-071>073-077>080-041200-
SOUTHWEST LOWER MICHIGAN

CITY           SKY/WX    TMP DP  RH WIND       PRES   REMARKS
BATTLE CREEK   CLEAR     56  53  90 CALM      29.97R
BENTON HARBOR  CLEAR     50  49  96 CALM      29.97R FOG
COLDWATER*     CLEAR     53  53  99 CALM      29.97R FOG
HILLSDALE*     CLEAR     54  54 100 CALM      29.97R
HOLLAND        CLEAR     53  50  89 CALM      29.97S
GRAND RAPIDS   MOCLDY    57  51  80 CALM      29.97R HAZE
KALAMAZOO      CLEAR     54  50  86 CALM      29.98R
STURGIS*       CLEAR     54  54 100 CALM      29.97R FOG
THREE RIVERS*  FAIR      55  53  95 CALM      29.98R FOG

$$
OHZ001>008-015>018-024>025-041200-
NORTHWEST OHIO

CITY           SKY/WX    TMP DP  RH WIND       PRES   REMARKS
DEFIANCE       CLEAR     56  53  90 CALM      29.97R
FINDLAY        CLEAR     54  51  90 CALM      29.95R
TOLEDO EXPRESS CLEAR     53  51  93 CALM      29.96R FOG
TOLEDO METCALF CLEAR     57  52  83 CALM      29.96R
LIMA           CLEAR     54  52  93 CALM      29.96R

$$
AND FOR LAKE MICHIGAN COASTAL AND OPEN LAKE BUOY OBSERVATIONS

STATION/POSITION TEMP    WIND        PRES    VSBY  WAVE
                 AIR SEA DIR/SP/G                  HT/PER
                 (F)     (DEG/KT/KT) (MB)    (MI)  (FT/S)
CALUMET HARBOR    62     220/  2/  4   N/A
MICHIGAN CITY     59     160/  3/  3   N/A
BURNS HARBOR      60     190/  4/  5 1015.2R
SAINT JOSEPH      59     150/  1/  2   N/A
4 MI NW BRIDGMAN  60 62                N/A           0
MICHIGAN CITY     62 63  210/  4/  4   N/A           0

$$
&&


USA.gov is the U.S. government's official web portal to all federal, state and local government web resources and services.